Wind_Speed
33 33 33 33 33 33 34 34 35 35 36 36 36 36 35 35 35 34 34 33 32 31 31 31 31 30 30 30 29 29 28 27 26 26 25 24 24 24 25 25 26 26 27 28 28 29 30 32 32 32 32 32 33 33 33 34 32 31 30 30 31 31 30 29 27 26 25 25 25 25 25 24 23 22 20 19 19 18 17 17 18 19 20 22 23 24 25 27
35 35 35 35 35 35 35 36 36 37 37 38 38 38 37 37 37 37 36 35 35 34 33 33 33 32 32 31 31 31 30 29 28 27 26 25 25 24 24 25 26 27 28 28 29 30 31 32 34 34 33 33 34 34 34 35 34 33 31 31 31 30 30 30 29 27 26 26 26 26 26 26 25 25 23 22 21 20 20 20 20 20 21 22 23 24 25 27
36 36 37 37 36 36 37 37 38 38 38 39 39 39 39 39 39 39 39 38 37 36 36 35 35 35 34 33 33 32 32 31 30 29 28 27 26 25 25 25 26 27 28 29 30 31 31 32 33 33 33 33 34 34 34 35 35 35 33 32 31 31 30 30 30 29 28 27 27 27 27 27 27 27 26 25 24 24 23 23 23 23 24 24 25 26 27 28
37 37 38 38 38 38 38 39 39 39 39 40 40 41 41 41 41 41 41 41 40 39 38 38 37 37 36 36 35 34 34 33 32 31 30 29 28 27 26 25 26 27 28 29 31 32 32 33 32 32 32 32 33 34 34 35 36 35 34 33 32 32 32 31 31 30 29 29 28 28 28 28 28 29 28 28 28 27 27 26 26 26 26 27 27 28 28 29
38 39 39 39 40 40 40 40 40 40 40 41 41 42 42 42 43 43 43 43 42 42 41 40 39 39 39 38 37 36 36 35 34 33 32 31 30 29 27 26 26 27 28 29 31 32 33 34 33 33 32 32 32 34 34 35 36 36 35 34 33 33 33 33 32 32 31 30 29 29 29 29 29 30 30 30 30 30 29 29 29 29 29 29 29 29 29 30
40 40 40 40 41 41 41 41 41 41 41 42 42 42 43 43 44 44 45 45 45 44 43 42 41 41 41 40 39 39 38 37 36 35 34 33 32 31 29 28 28 28 29 30 31 32 34 35 35 35 33 32 32 33 34 35 36 36 36 35 34 34 34 34 34 33 32 32 31 31 31 30 31 31 32 32 32 32 32 32 32 32 32 32 31 31 31 32
40 41 41 41 41 41 41 41 42 42 42 43 43 43 44 44 44 44 45 46 47 46 46 45 44 43 43 43 42 41 40 39 38 37 36 35 34 33 31 30 29 29 29 30 31 32 34 35 36 37 35 34 33 34 34 35 35 36 36 36 35 34 34 34 34 34 33 33 33 32 32 32 31 32 33 33 34 34 33 33 33 33 33 33 33 32 32 33
41 42 42 42 42 42 42 42 42 42 43 43 43 44 44 45 45 45 45 46 47 48 48 47 46 46 45 45 44 43 42 41 40 39 38 37 35 34 33 32 31 31 31 31 32 32 33 35 36 38 38 37 36 35 35 36 35 35 36 36 35 35 34 34 34 34 34 34 34 34 34 33 33 33 34 35 35 35 34 34 33 33 33 33 33 33 34 34
40 42 42 43 43 43 43 42 42 42 43 43 43 44 44 45 46 46 45 46 47 48 48 49 48 48 47 47 46 45 44 42 42 41 40 39 38 36 35 34 33 32 32 32 32 33 34 35 36 38 39 39 38 38 38 37 36 35 36 36 36 36 35 35 34 34 34 34 35 36 36 35 34 34 35 36 36 36 35 34 34 34 33 33 33 34 34 35
39 41 42 43 43 43 44 43 43 43 43 43 43 44 44 44 46 46 46 46 47 47 48 49 49 49 49 49 48 47 46 44 43 43 42 41 40 38 37 36 35 34 33 33 34 34 35 35 36 38 39 40 40 40 40 39 38 36 36 37 36 36 35 35 34 34 34 35 36 37 38 36 35 35 36 36 37 37 36 35 35 34 34 33 33 34 34 34
37 39 40 42 43 43 44 45 45 44 44 44 43 44 44 44 45 46 47 46 46 47 48 48 49 50 50 50 50 49 48 46 45 44 44 43 42 41 39 38 37 36 35 35 35 35 36 36 36 37 39 40 41 42 42 41 40 38 36 36 37 36 35 35 34 34 35 36 37 38 40 38 36 36 37 37 36 36 36 36 35 35 34 34 33 34 33 33
35 36 38 39 41 42 43 44 45 45 45 45 44 44 45 45 45 46 46 46 47 47 47 48 49 49 50 51 51 50 50 48 48 46 46 46 45 43 41 40 39 38 37 36 36 36 37 37 37 38 39 40 41 42 43 43 42 39 36 36 37 36 35 35 35 35 35 36 37 39 41 40 36 36 36 36 36 35 36 35 35 35 34 34 34 33 33 33
33 34 35 37 38 40 41 42 43 44 45 45 44 44 45 45 45 46 46 46 46 46 47 47 48 49 50 51 51 51 51 50 49 49 48 47 47 46 44 42 41 39 38 38 37 37 37 38 39 39 39 40 41 42 44 45 43 41 38 36 36 36 35 35 35 36 36 37 38 39 42 42 37 36 36 35 34 35 35 35 35 34 34 34 34 34 34 34
31 32 34 35 36 37 38 39 40 42 43 44 44 44 44 45 45 45 45 45 45 45 46 46 47 48 49 51 51 51 51 51 51 50 50 49 48 48 46 44 43 42 40 40 39 38 38 39 40 40 40 41 41 43 44 45 44 42 39 37 36 36 36 36 36 37 37 37 39 38 42 44 40 36 35 34 35 36 36 36 35 35 35 35 35 35 35 36
30 31 32 33 34 35 36 37 38 39 40 41 42 42 43 45 45 45 45 45 45 45 44 45 45 46 48 50 51 51 51 51 51 51 51 50 50 49 47 46 45 44 43 42 41 40 39 39 40 41 41 42 42 43 44 45 45 43 41 38 36 36 37 36 36 37 38 38 39 38 40 43 41 36 35 35 35 37 37 37 36 35 36 36 36 37 38 39
31 31 31 32 33 33 34 35 36 37 38 39 40 40 41 43 44 44 45 45 45 44 44 44 44 44 46 49 49 50 50 51 52 52 52 52 51 50 49 48 47 46 45 44 43 41 40 40 41 42 42 43 43 43 44 46 45 44 42 40 37 36 37 37 35 36 38 38 39 39 39 42 42 38 37 37 38 40 40 38 37 36 37 37 38 39 41 41
33 33 33 33 33 33 33 33 34 35 36 36 37 38 38 40 43 43 44 44 44 44 44 44 44 43 45 47 48 48 49 50 52 52 53 52 52 51 50 49 48 48 47 46 45 43 42 42 42 43 43 44 45 44 45 46 46 45 43 41 40 38 37 37 36 36 37 38 39 39 38 41 44 43 40 40 42 43 43 42 40 38 37 38 40 41 42 43
36 36 36 36 35 35 34 34 34 34 35 34 35 36 35 36 39 41 41 42 43 43 43 44 43 43 45 46 47 47 47 49 51 52 53 53 52 52 51 50 49 49 49 48 47 45 44 43 44 44 44 45 46 46 45 46 47 46 44 42 41 40 39 37 36 36 37 37 39 39 37 39 45 47 45 43 44 46 46 45 43 41 40 41 43 44 45 45
39 39 39 39 38 38 37 37 36 36 36 36 34 35 34 34 35 37 38 40 41 41 42 43 43 43 45 46 46 46 47 48 50 52 53 52 52 52 51 50 50 50 50 50 48 47 46 45 46 46 46 46 47 47 46 47 47 47 46 44 42 42 41 40 38 37 37 36 38 39 36 38 44 49 49 46 46 49 48 47 45 44 44 44 45 46 47 48
42 42 42 41 41 41 40 40 40 39 39 39 37 36 36 34 33 34 35 37 38 39 40 41 42 43 44 45 45 46 47 48 50 51 52 52 52 52 52 51 50 50 50 50 49 49 47 47 49 48 47 48 48 48 48 48 48 48 48 46 44 42 42 43 40 39 38 36 39 41 37 38 43 48 52 50 49 52 51 49 48 46 46 47 47 49 50 51
46 46 45 45 44 43 43 43 43 42 42 42 41 40 38 37 35 33 33 34 35 36 38 39 40 42 43 44 44 45 47 49 51 52 51 51 52 51 51 51 51 51 51 50 50 50 48 50 51 49 49 50 49 50 49 49 49 50 49 47 46 44 42 43 42 41 40 38 39 42 37 37 42 47 53 55 53 56 56 53 51 49 48 50 50 51 52 54
49 49 49 48 48 47 46 46 46 46 45 45 44 43 42 40 39 37 34 33 34 34 35 36 37 39 41 42 43 45 47 50 52 52 52 51 52 51 51 51 51 51 52 51 50 50 50 52 53 51 51 51 51 51 50 50 51 51 51 48 47 47 43 42 43 42 42 40 39 41 38 36 41 45 52 57 56 58 61 57 53 52 51 52 52 53 55 57
51 51 51 51 51 50 49 49 49 48 48 48 47 46 45 44 43 41 38 34 34 35 35 36 36 37 39 40 43 45 48 51 52 53 53 52 52 51 50 52 51 52 53 53 51 50 51 53 54 53 53 53 53 53 52 52 52 52 52 50 49 48 45 41 42 42 43 42 40 41 36 34 39 43 50 57 58 61 64 60 56 55 55 54 54 56 57 59
54 54 53 53 53 52 52 52 51 51 50 50 49 49 48 47 46 44 42 37 34 36 38 37 37 37 38 40 42 46 48 51 52 53 53 52 52 51 51 52 51 53 54 53 51 51 53 55 55 55 55 55 55 54 55 54 53 53 54 53 51 49 47 43 41 41 42 43 43 42 36 30 34 40 46 53 56 63 67 62 59 59 58 57 57 59 59 60
57 57 56 56 55 54 54 54 54 54 53 52 52 52 51 49 48 46 45 40 35 37 40 40 39 39 40 41 43 46 48 49 51 53 53 52 52 51 51 52 52 54 55 53 52 52 56 58 56 56 56 56 56 56 58 56 53 54 56 56 52 50 49 46 43 42 42 43 45 48 41 27 27 35 41 48 53 62 69 65 63 63 61 61 61 60 61 61
58 58 58 59 58 57 57 57 57 57 56 56 55 54 53 52 51 49 48 43 36 37 41 42 42 42 43 44 45 47 48 48 50 51 52 52 51 51 51 52 53 54 54 54 53 53 57 60 58 57 58 57 58 59 61 59 55 55 57 58 54 52 51 48 47 44 44 45 44 52 51 29 22 31 40 47 53 61 68 67 66 66 65 65 64 62 62 62
59 60 60 60 60 59 58 58 59 59 58 58 57 57 56 55 54 53 51 45 37 37 42 44 44 44 46 48 48 50 50 49 50 51 51 51 50 50 51 52 54 54 54 54 53 54 58 59 59 59 59 58 60 61 62 62 59 57 57 58 56 55 52 50 49 48 49 48 43 53 58 35 20 31 41 49 55 60 65 68 68 69 68 67 66 64 63 62
60 61 61 61 61 61 60 60 60 60 60 60 59 59 57 57 55 54 53 46 38 38 43 45 46 46 49 51 51 52 53 52 53 52 52 52 51 51 52 53 54 54 55 55 54 56 58 58 59 60 59 60 62 63 64 64 62 59 59 58 57 57 55 53 52 53 54 50 45 53 61 43 25 31 43 50 57 59 62 66 68 68 68 69 68 66 64 63
60 61 62 62 62 62 62 61 61 63 63 62 62 61 59 58 56 54 52 44 38 40 44 45 48 50 52 54 53 54 55 55 55 54 54 54 53 54 54 55 56 56 57 56 55 58 59 59 60 61 62 63 64 65 65 65 63 62 61 59 60 59 57 56 55 57 57 52 49 55 61 49 30 32 46 52 55 56 58 63 67 68 69 70 70 68 66 65
61 61 63 63 64 64 63 63 63 64 65 65 64 63 62 60 57 55 48 41 41 45 46 47 50 52 54 55 55 55 56 56 56 56 55 55 55 55 56 57 59 59 59 59 59 60 61 61 62 63 65 65 66 66 66 66 65 64 62 61 63 61 59 59 59 62 61 55 54 57 60 54 38 37 48 50 49 52 55 62 67 69 71 72 71 70 68 67
61 61 62 63 65 66 65 65 66 66 66 66 66 65 63 61 57 50 42 42 48 49 48 50 53 54 56 56 56 57 57 57 57 57 57 57 56 56 57 59 61 62 62 61 62 63 62 62 63 65 66 67 67 67 66 66 65 64 64 64 65 64 63 64 63 66 65 58 58 59 59 56 46 44 49 46 47 52 56 63 68 70 73 73 72 71 70 69
64 63 62 62 65 66 66 67 69 69 68 67 67 65 63 59 50 42 41 46 51 49 50 55 56 56 57 57 57 58 58 58 58 59 58 58 57 57 59 61 63 65 64 64 65 65 63 63 65 67 67 68 68 67 67 66 65 65 66 67 68 68 69 69 66 67 65 62 63 62 60 55 49 47 46 45 48 53 59 66 68 70 74 74 72 71 70 70
67 66 65 65 66 66 66 67 70 70 70 70 69 65 64 56 43 39 46 51 53 53 55 57 57 59 60 59 59 60 61 60 61 61 61 60 59 58 60 62 64 67 67 67 67 67 65 63 65 68 69 68 68 69 68 67 67 67 67 69 70 72 75 73 68 67 66 66 66 65 61 55 48 45 43 45 50 57 63 68 69 72 75 74 72 72 71 70
71 69 68 68 68 69 69 69 70 71 71 71 70 67 64 52 41 43 51 54 58 60 60 60 60 61 61 60 61 62 64 64 64 64 64 62 61 60 61 63 66 69 71 71 70 70 69 64 64 70 70 68 68 69 69 69 69 69 69 71 72 75 80 77 72 71 71 69 66 65 60 52 48 46 44 48 55 61 67 69 70 73 75 74 73 72 72 71
73 72 71 70 71 72 74 74 74 74 74 72 71 69 60 49 46 50 53 56 61 62 62 63 63 62 61 60 61 63 66 68 67 68 68 66 65 64 65 67 70 72 74 76 75 76 74 67 66 70 71 70 70 69 70 71 72 72 72 74 76 79 82 82 79 77 77 73 63 60 57 50 47 46 45 51 58 65 69 69 70 74 76 75 73 73 74 74
76 75 74 73 73 76 79 79 78 79 78 76 75 68 55 50 53 55 55 59 63 63 65 66 64 63 61 60 60 63 66 68 67 68 68 68 68 66 67 69 72 75 77 80 82 82 79 73 69 71 72 72 73 73 74 75 76 76 76 77 80 81 82 83 82 79 79 75 63 56 55 49 44 44 46 55 62 67 70 69 71 75 77 75 74 75 76 77
79 78 77 76 77 80 83 83 83 83 82 82 78 66 57 56 58 58 59 62 64 66 69 67 64 63 62 61 61 63 68 69 66 66 68 67 64 62 65 69 72 76 79 83 86 86 83 78 74 74 75 75 77 77 76 76 78 80 79 78 79 80 80 82 83 80 79 77 66 56 55 50 45 46 50 57 64 68 69 68 71 74 75 75 76 77 78 79
83 81 79 78 81 85 87 87 87 86 86 86 78 66 62 64 63 62 64 65 67 70 71 69 66 65 64 62 61 62 67 68 66 67 68 66 62 59 62 68 70 74 78 83 86 86 86 83 79 76 78 78 78 76 75 76 79 78 76 75 75 77 80 81 84 82 79 80 71 59 55 50 47 52 55 59 66 69 67 67 70 73 75 77 78 79 80 80
87 84 81 81 86 88 89 90 90 90 90 85 75 68 68 68 67 68 69 70 72 74 72 70 70 70 68 65 65 66 68 68 68 69 69 66 63 59 61 67 70 74 78 84 87 87 88 89 84 80 80 79 75 73 74 76 77 76 73 73 73 77 81 82 83 81 80 82 76 67 60 48 46 56 61 64 69 68 66 69 72 76 79 80 80 81 82 82
90 88 84 85 89 91 93 95 94 93 90 84 77 74 72 70 70 71 73 75 76 76 75 74 74 74 72 71 72 72 73 73 72 72 71 68 65 62 62 66 70 74 79 83 86 88 90 92 91 86 81 76 72 72 73 73 74 76 75 74 75 78 83 83 81 79 81 84 81 78 69 50 46 60 66 68 71 68 68 74 77 81 84 83 82 82 83 82
94 91 87 88 93 96 98 99 97 94 91 85 80 78 76 75 73 72 74 77 78 78 78 77 76 77 76 76 77 76 77 77 75 75 74 70 68 66 64 66 69 73 77 82 85 88 91 95 95 89 80 74 72 72 72 72 74 76 76 77 79 81 83 84 83 80 82 85 83 86 81 59 51 63 69 70 71 69 73 79 81 84 86 84 83 83 83 83
96 93 90 93 97 99 101 102 98 94 91 85 82 82 82 80 76 74 75 77 79 80 80 79 78 80 80 80 80 80 80 80 78 77 75 72 70 70 69 70 72 74 78 82 85 87 92 96 96 89 81 76 74 72 72 74 75 76 77 79 80 81 82 85 87 84 84 86 85 92 91 68 57 68 73 71 71 71 76 81 82 85 85 83 83 82 82 83
97 95 95 97 100 102 104 102 98 95 92 88 88 88 87 85 81 78 78 79 80 81 81 81 80 81 81 80 81 81 81 82 78 76 76 75 74 75 76 77 77 78 80 83 85 89 94 97 97 92 86 80 75 73 73 74 76 78 79 79 80 81 82 86 89 89 90 88 87 97 98 77 65 72 74 71 73 75 77 82 83 84 83 82 82 81 82 83
100 100 100 100 103 105 105 101 98 98 96 93 93 91 90 89 85 82 81 82 83 84 83 82 81 81 81 81 82 82 83 83 79 78 81 81 79 80 82 83 84 86 87 88 91 95 99 100 99 95 88 81 76 74 74 76 80 82 80 80 81 82 85 88 90 93 93 88 89 99 98 83 75 76 74 73 77 78 79 82 83 82 82 82 82 83 85 87
105 105 104 103 105 107 105 101 100 101 100 98 97 95 94 93 88 85 85 85 86 86 85 85 85 85 85 86 86 85 85 87 86 85 86 84 83 83 84 87 90 91 92 94 96 99 101 100 97 93 89 83 78 76 78 80 84 85 82 82 84 85 87 88 89 93 92 87 92 99 94 87 82 78 77 79 81 81 82 82 82 83 83 84 85 87 90 93
110 111 108 106 108 109 107 104 104 104 103 102 102 100 99 97 93 91 90 89 87 88 88 89 89 89 89 89 89 88 89 91 93 91 86 82 83 83 84 87 90 91 92 94 96 98 99 96 92 90 88 84 79 77 81 84 85 85 84 84 85 85 87 87 86 90 91 93 99 96 91 93 88 78 79 83 83 83 83 82 83 84 85 88 91 94 96 100
116 115 113 110 111 112 110 107 107 107 107 107 108 105 102 100 97 95 93 91 90 91 93 92 90 90 90 89 91 92 92 93 95 91 83 80 81 82 84 87 88 89 91 93 96 97 98 95 89 86 86 84 80 80 84 86 86 85 85 84 83 85 87 85 85 89 94 101 103 93 92 99 91 79 81 86 87 86 84 84 86 87 91 96 98 99 102 104
120 119 117 116 117 116 113 109 109 111 112 113 112 110 107 104 101 97 95 94 95 96 97 95 92 91 92 93 96 97 96 96 94 88 83 84 86 88 90 91 91 93 94 97 99 99 101 100 93 90 92 89 85 86 89 92 91 89 88 85 83 85 86 86 87 91 96 103 101 94 96 101 91 84 88 91 91 91 89 90 94 97 101 103 102 104 106 108
124 122 121 121 121 121 118 115 114 115 116 116 116 115 113 109 104 101 100 101 101 101 101 99 96 94 96 98 101 102 100 98 95 92 92 94 97 98 99 98 97 97 98 99 100 101 104 104 99 99 102 99 94 94 98 101 99 96 93 88 85 87 90 91 92 93 97 101 101 101 104 101 91 89 94 94 94 97 98 100 103 106 107 107 107 108 110 111
127 125 123 124 124 124 123 121 120 120 119 119 120 118 115 111 108 106 107 107 106 105 105 103 100 100 102 105 106 106 102 99 99 99 101 105 108 108 107 105 103 103 103 104 105 106 109 108 105 107 110 107 101 101 106 108 107 108 104 94 89 92 97 97 95 97 102 105 106 107 108 100 92 94 100 100 101 104 105 106 108 110 110 110 111 111 112 114
129 127 126 127 128 127 125 124 125 125 124 123 122 120 118 115 111 110 112 113 112 111 110 109 107 107 110 111 111 109 105 105 107 109 110 112 114 113 112 111 110 109 109 110 110 112 114 113 112 114 115 112 106 107 112 114 115 116 108 96 92 98 101 99 99 102 107 110 111 111 108 103 100 103 106 107 108 108 109 110 111 112 113 113 113 114 114 115
132 132 131 132 132 131 130 129 130 130 129 128 127 125 123 121 117 117 118 118 116 115 115 115 114 115 117 116 114 112 112 113 116 117 117 118 119 118 118 117 116 115 115 115 115 116 118 118 119 121 123 120 116 116 119 122 123 117 106 98 101 105 103 102 104 107 111 115 115 113 109 108 109 111 112 112 111 110 111 113 114 115 116 116 115 116 116 117
Wind_Direction
271 271 271 270 270 270 269 269 269 268 268 268 268 268 267 265 262 261 260 260 262 263 265 266 268 270 272 274 276 278 280 282 284 287 290 293 296 299 303 306 308 311 314 316 320 322 324 327 331 336 338 340 341 342 345 347 346 342 340 339 340 341 340 337 334 333 333 332 330 330 331 334 335 336 337 338 338 337 335 333 328 326 326 323 322 321 320 321
270 271 271 271 270 270 269 268 268 268 268 268 269 269 268 267 266 263 262 262 262 262 264 265 266 268 270 272 274 276 278 280 282 284 287 290 292 296 300 304 307 310 312 314 317 320 323 326 330 333 334 337 339 340 342 344 344 343 340 337 336 338 339 338 336 334 332 330 328 326 326 328 329 330 332 332 332 332 331 330 329 327 325 322 321 319 318 318
269 270 270 270 270 270 270 269 269 268 268 269 269 269 269 268 267 265 264 263 263 263 263 265 266 266 268 269 271 274 276 278 280 282 284 287 289 293 297 301 305 308 311 313 316 318 321 323 327 329 330 334 336 336 338 340 341 341 339 335 333 333 335 336 336 336 335 332 329 325 324 323 323 324 325 325 326 326 325 326 325 324 322 320 318 317 317 317
267 269 269 270 271 271 271 271 270 270 269 270 270 270 270 270 269 267 266 264 264 263 264 264 265 266 267 268 269 271 273 276 278 280 282 284 287 290 294 298 302 305 308 311 314 316 318 320 324 325 327 330 332 334 334 335 337 339 337 334 331 329 330 332 333 334 335 334 332 328 326 324 322 322 321 321 321 320 320 320 319 319 318 317 315 314 314 314
267 269 270 271 271 271 272 272 271 271 271 272 272 272 273 272 272 270 268 266 265 264 264 264 265 266 267 268 268 269 271 274 276 278 280 282 284 287 290 294 298 302 305 308 310 313 315 317 320 322 325 326 327 330 332 332 333 335 335 333 330 328 327 328 329 330 332 333 332 330 329 327 326 324 322 321 319 318 318 316 315 315 314 313 312 312 312 312
268 269 271 271 272 273 274 274 273 273 273 274 274 275 275 275 274 273 272 270 268 266 265 265 265 266 267 268 268 269 270 272 274 276 277 279 281 284 287 290 294 298 301 304 307 310 312 314 317 320 322 323 323 325 328 329 329 331 332 332 330 327 325 325 325 326 327 329 329 328 327 328 328 326 323 321 318 317 317 315 314 314 312 312 312 311 311 310
267 269 270 271 271 272 273 274 274 274 274 275 276 277 277 278 277 276 274 273 271 269 268 267 266 266 267 268 268 269 269 270 272 274 275 277 279 281 284 287 290 294 297 300 303 306 309 312 315 317 319 320 320 321 323 325 325 326 328 329 328 326 324 323 323 323 324 325 325 325 325 326 328 325 321 319 317 316 315 314 314 312 312 312 311 311 310 310
267 268 270 270 271 271 271 272 273 273 275 275 276 277 278 279 279 279 277 275 274 272 270 269 268 268 267 268 269 269 270 270 271 272 273 275 277 279 281 284 287 290 293 297 299 302 306 309 311 313 315 317 318 319 319 320 321 321 323 326 326 324 323 322 321 320 321 322 322 322 322 324 326 323 320 318 317 316 315 314 313 311 311 311 310 309 309 309
266 268 269 270 271 271 271 272 272 273 274 275 276 276 277 278 279 280 280 278 276 274 273 272 271 270 269 269 270 270 271 271 271 272 273 274 275 277 279 281 284 287 290 293 296 299 302 305 308 310 312 314 316 317 317 318 318 318 319 322 324 323 322 321 320 319 319 319 318 318 318 322 324 321 318 317 316 315 314 313 311 310 309 309 309 308 307 308
266 267 268 270 271 271 272 272 273 273 274 275 275 276 277 278 279 280 281 280 278 276 275 273 272 272 271 271 271 272 272 273 273 273 273 274 274 275 277 279 281 284 287 290 293 296 299 302 304 307 309 311 313 314 315 317 317 316 316 318 320 321 320 320 319 318 318 317 316 316 316 320 321 318 317 315 315 314 312 311 310 309 309 308 308 307 307 307
267 267 268 268 270 271 271 272 273 273 274 275 275 276 277 277 278 279 281 281 281 279 277 275 274 273 273 273 273 273 274 274 274 274 274 274 274 275 276 277 279 281 284 287 290 292 295 298 301 304 306 309 311 312 313 315 316 315 313 314 316 317 318 318 317 317 316 315 315 315 314 318 319 317 315 314 313 312 310 309 308 308 308 308 307 307 308 308
269 269 269 269 270 270 271 271 272 273 274 274 275 275 276 277 278 278 280 281 281 281 279 277 275 274 274 274 274 274 275 275 275 276 276 275 275 275 275 275 277 278 281 283 286 289 292 295 298 300 303 306 308 309 311 313 314 314 311 311 313 313 314 315 315 314 315 314 314 314 313 316 318 315 313 312 312 312 310 308 308 307 307 307 307 308 309 309
274 273 273 272 272 273 273 273 273 273 273 274 274 274 275 275 276 277 278 279 280 281 281 279 278 276 275 274 274 274 275 275 275 276 276 276 276 275 275 275 275 276 278 280 283 286 289 292 295 298 301 303 305 307 308 310 312 312 310 308 310 310 309 311 311 311 312 312 313 314 312 314 317 314 313 313 313 313 312 311 310 308 307 307 308 309 309 308
277 277 277 277 277 277 277 277 277 276 275 275 275 274 274 274 275 275 276 277 278 279 280 280 279 278 277 276 275 274 274 274 274 275 275 276 276 275 275 275 275 275 276 278 280 282 286 289 292 295 298 300 302 304 306 308 309 310 308 305 307 307 306 307 308 307 309 310 311 313 312 313 317 316 315 316 316 316 316 316 316 312 309 310 312 312 311 310
276 277 279 279 280 281 281 282 281 280 280 279 278 276 275 275 275 274 275 276 277 278 278 279 279 278 278 276 276 275 275 274 274 274 274 275 275 275 275 275 275 276 276 277 279 280 283 286 289 293 295 297 299 302 304 305 307 308 306 302 302 304 304 304 305 304 306 308 309 312 313 312 315 315 315 317 317 316 316 318 318 315 313 313 314 314 315 314
273 275 277 279 280 281 282 283 284 284 283 282 281 280 278 276 275 275 275 275 276 277 277 278 278 278 277 277 277 276 275 275 274 274 273 273 274 275 275 275 275 276 276 277 278 279 281 283 286 290 293 295 297 299 301 303 304 305 305 301 299 301 301 302 303 302 303 306 306 310 314 311 311 312 312 313 315 313 313 315 315 315 315 315 315 315 316 316
271 273 274 276 277 279 281 283 284 285 285 285 284 283 281 279 278 277 276 276 276 276 277 277 277 278 277 277 277 277 276 275 274 273 273 273 273 274 274 275 275 276 277 278 279 279 280 282 284 287 291 292 295 297 299 300 301 302 302 300 298 298 298 301 302 300 301 304 303 306 312 311 307 308 308 310 311 310 311 313 313 313 315 315 316 317 317 316
270 271 272 273 274 276 278 280 281 283 284 284 284 284 284 282 281 279 278 277 277 276 276 277 277 278 278 277 277 278 277 276 275 274 273 272 273 273 274 275 275 276 277 278 279 280 281 281 283 286 289 291 293 295 296 297 298 300 300 299 298 296 296 299 301 299 299 301 299 302 310 309 304 305 306 306 307 307 308 310 311 311 313 315 316 316 316 316
269 270 271 272 273 275 276 278 279 280 282 282 283 284 284 283 283 282 281 279 278 278 277 277 278 278 278 279 279 279 279 278 276 275 274 273 273 273 274 275 275 276 277 278 279 280 281 282 284 286 288 290 292 293 294 294 295 297 297 297 296 296 296 298 300 300 299 300 297 299 306 306 302 302 302 303 304 302 303 306 307 309 310 313 314 314 315 314
269 270 270 272 273 274 276 277 278 279 280 282 282 283 284 284 284 283 283 282 280 280 280 279 279 278 278 279 280 280 280 279 278 276 275 275 274 274 274 275 276 276 277 278 279 281 282 284 284 285 288 289 291 292 292 292 293 294 295 295 294 296 298 298 300 302 302 302 298 298 303 302 300 300 300 301 301 299 300 302 304 305 307 309 311 311 312 312
269 270 271 271 272 273 275 276 277 278 279 281 282 283 283 284 284 283 283 283 283 283 283 282 280 280 280 280 280 281 281 280 279 278 277 276 276 275 275 276 276 277 277 278 279 280 282 284 284 286 287 289 290 290 290 290 291 293 293 293 293 296 299 298 299 302 303 304 301 300 302 300 298 298 298 299 299 298 298 300 302 303 305 306 308 309 310 311
268 269 270 271 272 273 274 275 276 277 278 280 281 282 282 283 283 283 282 283 285 284 284 284 283 282 281 281 281 281 281 280 280 279 279 278 277 277 277 276 276 277 278 278 279 281 282 284 285 286 287 289 289 289 288 288 290 292 292 291 292 296 299 299 299 302 304 305 303 302 303 302 298 296 296 297 299 299 298 299 300 302 304 305 306 307 308 311
268 269 269 271 272 273 273 274 274 276 277 278 279 280 280 281 281 281 281 282 286 286 285 284 285 284 283 282 282 281 280 279 279 280 279 279 279 278 278 278 278 278 278 279 280 282 283 284 285 286 287 288 288 287 286 286 289 291 290 289 292 295 298 299 299 301 303 304 304 301 303 305 301 299 298 297 299 299 297 298 301 303 304 305 305 306 308 311
268 268 269 270 271 272 272 273 274 275 275 276 278 279 279 280 280 280 280 281 285 288 286 285 285 285 284 283 282 280 279 279 280 280 280 280 280 280 280 279 279 279 279 280 282 283 284 284 284 286 287 287 286 285 284 285 289 290 289 288 291 294 296 297 298 299 301 303 304 301 300 303 303 303 300 299 301 299 297 300 304 304 304 303 303 305 308 311
267 268 269 269 270 271 271 272 273 273 274 275 276 277 278 279 280 280 280 280 282 286 287 287 285 284 283 281 279 279 278 279 280 280 280 281 281 282 282 281 281 280 281 282 283 284 284 283 284 285 285 285 285 284 283 285 288 289 288 288 290 293 294 296 296 296 298 301 304 303 300 300 305 305 299 299 301 297 296 300 303 302 301 300 301 303 307 311
267 268 268 269 270 271 271 272 272 273 273 274 274 275 276 278 279 279 280 281 282 284 286 287 285 284 282 279 277 276 276 277 278 279 280 281 282 282 282 282 281 281 282 282 283 283 282 283 284 283 284 284 284 283 283 286 288 288 287 287 290 292 293 295 294 294 296 300 306 302 298 301 307 302 298 299 297 293 295 300 300 299 299 298 300 303 307 310
268 269 269 269 269 270 271 272 272 273 274 273 274 274 275 276 277 278 279 281 284 286 286 285 283 281 280 278 276 276 275 275 276 277 279 280 281 282 282 282 281 281 281 281 282 282 281 282 283 283 283 283 283 283 285 287 288 288 286 286 289 291 292 293 292 293 294 301 307 298 296 305 307 298 300 299 295 293 297 299 298 297 297 297 299 303 307 310
268 269 270 270 270 270 270 270 271 272 273 273 274 274 275 275 276 277 279 281 285 286 284 282 280 278 277 276 275 275 276 276 276 277 278 279 280 280 281 280 280 281 280 280 281 281 280 281 282 283 283 283 283 284 286 287 289 288 286 287 288 289 291 291 291 291 293 302 306 295 297 307 309 304 302 296 295 296 297 297 295 295 296 298 300 304 308 309
266 268 269 270 271 272 272 271 271 271 272 272 273 274 274 275 275 277 279 284 287 283 279 278 278 277 275 274 275 275 277 277 278 278 278 279 279 280 280 280 280 280 280 281 281 280 280 281 282 283 283 283 284 285 286 288 289 289 288 288 288 288 290 290 290 291 293 302 302 294 298 306 310 311 303 297 297 297 296 295 294 295 296 298 301 305 308 308
266 267 268 269 271 271 272 272 272 272 272 273 273 274 274 275 276 278 283 290 286 278 276 277 277 275 273 274 276 277 278 278 279 279 279 280 280 280 280 280 280 280 280 280 280 279 280 281 282 282 283 284 285 286 288 289 290 290 290 289 288 288 289 289 290 291 294 301 298 294 300 305 310 310 301 297 297 296 295 294 293 294 296 298 302 305 307 307
267 266 267 268 269 270 271 272 272 272 273 273 274 274 275 276 278 283 291 291 282 278 278 275 272 272 274 276 278 279 279 279 280 280 280 280 280 281 281 281 281 281 280 280 279 279 280 281 282 283 284 285 286 287 289 290 291 291 290 289 288 289 288 288 290 292 296 299 295 295 300 304 309 307 299 297 297 295 293 291 291 294 295 298 303 305 306 306
269 268 268 268 268 269 270 271 271 271 272 272 273 274 275 276 279 289 293 286 281 280 276 271 270 272 274 276 278 279 279 280 281 280 281 281 281 282 282 283 283 282 281 280 279 279 280 282 283 284 285 286 287 288 289 290 290 289 289 289 289 290 289 289 291 294 297 297 294 296 300 302 306 304 299 300 297 293 290 289 291 294 295 299 303 304 305 305
270 270 270 269 269 270 270 270 270 271 271 271 271 272 273 275 283 290 287 283 281 278 273 272 273 273 273 275 276 278 279 280 280 280 281 281 282 283 284 284 284 283 283 281 280 281 281 282 285 285 285 287 288 288 288 288 288 288 289 290 291 291 289 290 294 296 296 294 294 297 299 301 303 300 299 300 296 291 289 289 292 294 296 300 302 303 304 304
271 271 271 271 271 271 271 270 270 271 271 271 271 270 272 278 286 283 280 280 279 277 276 277 276 275 275 275 276 277 278 278 279 280 280 281 282 283 284 284 284 284 283 283 282 282 281 283 285 285 286 287 287 287 287 288 288 289 290 291 292 291 291 294 298 297 294 293 294 296 298 301 300 297 299 296 291 289 288 290 293 295 297 300 302 304 304 304
270 271 271 272 272 273 273 272 272 272 272 272 271 271 276 284 283 276 276 277 277 278 279 278 277 277 277 277 277 277 277 277 278 279 280 281 282 282 283 284 284 284 284 284 284 282 283 284 284 283 285 286 285 285 286 287 288 290 291 291 291 291 295 298 298 297 294 293 293 295 298 299 299 300 300 294 290 289 289 292 296 297 299 301 303 304 303 304
269 269 270 271 273 273 273 273 273 273 273 273 273 275 282 284 278 275 275 274 275 276 276 275 276 278 279 280 280 280 278 277 278 279 280 280 281 282 284 283 283 284 285 285 284 283 284 284 283 282 282 282 283 284 285 288 290 291 290 291 292 295 298 298 297 296 294 293 294 297 296 297 300 302 299 294 291 290 292 296 299 299 300 302 303 302 302 303
267 267 268 270 271 272 272 273 272 273 274 273 275 280 285 282 279 278 275 272 272 272 272 273 274 276 277 278 279 281 280 280 281 281 281 281 282 284 284 283 283 284 284 284 284 284 284 283 282 281 281 281 282 284 287 290 291 290 291 293 296 298 298 296 295 294 293 293 295 297 296 299 306 305 298 293 291 290 294 298 299 298 299 300 300 300 301 303
266 266 267 269 269 269 270 271 272 273 273 274 277 282 282 280 279 278 275 274 272 271 271 273 274 274 274 275 277 278 278 280 282 282 282 283 284 286 286 285 285 284 284 283 282 283 283 282 282 282 282 282 284 288 291 292 291 292 295 297 298 297 296 294 293 293 294 295 295 296 296 302 311 307 299 294 291 292 296 298 298 297 297 298 299 300 301 302
264 265 266 267 268 268 269 270 270 271 272 274 278 280 279 278 278 277 277 276 275 274 274 275 275 274 274 274 274 273 274 276 278 279 280 282 284 286 286 287 287 285 283 281 281 282 282 283 283 282 282 284 288 292 293 292 293 295 296 296 296 295 293 291 292 294 296 296 296 297 297 305 313 305 299 296 294 296 299 299 298 297 297 298 299 300 301 300
264 265 265 266 267 268 268 268 268 270 272 274 277 277 277 277 276 276 276 276 276 277 277 277 276 276 275 274 273 273 273 273 274 276 278 280 282 283 284 284 284 283 282 281 282 282 283 283 283 282 283 287 291 293 293 294 295 295 295 295 294 291 290 291 293 296 296 296 298 299 299 307 310 301 298 295 294 298 300 298 297 297 297 299 300 300 300 300
265 265 265 266 267 267 267 267 268 269 271 273 276 277 277 275 275 275 275 275 276 277 277 277 277 278 277 275 275 274 274 274 275 276 277 279 280 281 281 280 278 279 281 282 283 284 284 283 282 283 286 289 291 292 293 295 295 294 294 293 291 290 292 294 295 296 296 297 299 299 298 304 306 299 295 294 296 300 299 297 297 297 298 299 300 300 300 300
265 265 265 264 265 266 267 268 269 270 272 275 276 275 274 273 273 274 275 276 276 276 277 277 278 278 277 276 276 276 276 276 276 277 278 279 280 280 278 276 275 276 278 280 282 283 282 281 282 283 286 287 289 291 293 294 294 293 291 290 291 293 295 296 295 296 297 297 299 298 296 300 303 296 294 296 300 300 297 296 297 297 299 301 301 301 300 299
265 266 264 264 264 265 266 268 270 272 273 273 272 271 272 272 272 273 274 275 275 275 275 276 276 276 277 277 277 277 277 277 278 279 279 279 278 278 276 275 276 276 276 277 278 279 279 280 281 283 285 287 289 291 291 291 290 289 288 290 292 294 294 294 295 296 295 297 299 295 293 298 301 296 297 301 301 298 296 296 296 297 299 300 300 300 300 299
264 264 264 263 264 264 266 268 270 271 271 271 270 270 271 271 271 272 272 272 272 273 273 274 275 276 276 277 277 277 278 279 279 278 278 277 277 277 277 277 276 276 276 277 277 277 277 278 280 283 286 288 290 290 289 287 285 285 287 290 290 291 292 292 294 294 295 298 297 292 293 298 300 298 301 303 300 297 296 295 296 298 299 300 300 300 299 299
263 263 263 263 263 264 265 266 267 268 270 270 270 270 270 270 270 270 269 269 270 271 273 274 274 275 275 276 276 277 278 278 277 276 275 276 277 278 278 278 277 277 277 277 276 276 277 279 281 285 288 289 290 289 287 284 284 285 287 288 288 289 290 291 292 293 295 297 293 290 295 298 298 301 304 303 299 297 296 296 298 299 300 300 300 300 300 300
263 263 263 263 263 264 264 264 265 266 268 269 269 268 268 268 268 268 267 268 270 271 272 272 272 273 273 274 275 276 275 275 274 273 273 275 277 277 277 276 276 276 276 276 276 276 278 281 284 287 289 289 290 289 286 284 285 286 287 287 287 288 289 290 292 294 295 293 289 291 297 296 296 302 305 301 298 297 297 298 299 299 300 300 300 300 300 300
264 265 265 265 264 264 264 264 265 266 266 266 267 267 267 267 267 267 269 270 270 269 269 270 271 272 272 273 274 273 272 272 272 274 276 277 277 276 274 273 274 274 275 275 276 277 280 282 284 287 287 288 289 288 286 285 285 285 285 286 288 289 289 292 294 293 292 289 289 294 297 294 297 304 303 298 297 297 298 299 298 299 299 299 299 299 299 299
265 266 267 267 266 266 267 266 265 264 264 264 266 267 267 268 268 269 269 269 269 269 269 269 270 271 271 271 271 271 270 271 273 276 278 278 276 274 273 272 272 272 273 275 276 279 281 282 284 285 285 285 286 286 286 285 284 284 284 286 288 290 292 294 293 290 288 289 292 297 295 293 299 304 299 296 297 298 298 298 298 299 299 299 299 299 299 299
265 266 267 268 268 268 268 266 264 263 264 265 266 267 268 269 270 270 269 268 269 270 270 270 271 271 270 270 270 270 271 272 274 276 276 275 273 273 272 272 272 273 274 276 278 280 281 283 285 285 284 285 286 287 286 285 285 285 285 287 291 293 293 291 289 288 289 291 293 294 292 294 301 300 296 296 298 297 297 298 298 298 299 299 299 299 299 299
264 265 266 266 266 267 267 267 266 265 265 266 266 267 269 270 271 270 269 269 269 269 269 271 272 272 270 270 271 272 274 276 276 275 273 272 271 271 272 273 275 276 277 278 279 281 282 283 284 284 284 285 287 287 285 284 286 286 287 291 295 292 289 287 289 291 291 291 291 291 292 296 298 295 294 296 296 296 297 298 298 299 299 299 299 299 300 300
263 263 264 264 264 265 265 265 266 267 267 267 268 269 270 270 269 268 268 269 270 271 272 274 273 271 270 269 271 274 276 275 274 273 272 272 272 274 275 276 277 277 278 279 280 281 282 283 283 283 283 284 285 283 283 284 285 285 290 296 293 287 286 288 291 291 290 289 289 290 293 295 294 292 293 294 295 296 298 299 299 300 299 299 299 300 301 301
261 262 262 263 263 264 264 264 265 266 267 268 269 269 268 268 268 267 268 270 272 273 274 273 272 271 271 272 274 275 274 272 271 272 274 274 275 276 277 277 278 278 279 280 279 280 281 282 283 283 283 284 285 284 283 283 283 287 294 293 286 284 287 290 289 288 287 287 289 291 292 292 292 292 293 294 295 298 298 299 299 299 299 299 300 301 301 302
Height
10843 10843 10842 10842 10842 10842 10842 10842 10842 10842 10842 10842 10842 10842 10841 10841 10842 10842 10842 10842 10842 10841 10841 10841 10841 10840 10840 10839 10839 10838 10838 10837 10837 10836 10836 10835 10835 10834 10833 10832 10831 10830 10829 10828 10826 10825 10823 10821 10820 10819 10818 10818 10816 10815 10814 10812 10810 10809 10807 10806 10804 10802 10800 10798 10797 10796 10795 10794 10792 10790 10789 10788 10787 10787 10786 10786 10785 10784 10783 10782 10781 10780 10780 10779 10778 10778 10777 10776
10840 10840 10840 10840 10840 10840 10840 10840 10840 10840 10840 10840 10840 10839 10839 10839 10839 10839 10839 10839 10839 10839 10839 10839 10839 10838 10838 10837 10837 10836 10836 10835 10835 10835 10834 10834 10833 10832 10831 10830 10830 10828 10827 10826 10825 10823 10822 10820 10817 10816 10815 10815 10814 10812 10811 10810 10808 10807 10806 10804 10803 10801 10799 10797 10796 10795 10794 10792 10791 10788 10787 10786 10785 10785 10785 10784 10784 10783 10782 10781 10780 10779 10778 10778 10777 10776 10775 10774
10838 10838 10838 10838 10837 10837 10837 10837 10837 10837 10838 10837 10837 10837 10837 10837 10837 10837 10837 10837 10837 10837 10837 10836 10836 10836 10836 10835 10835 10834 10834 10834 10833 10833 10832 10832 10831 10830 10830 10829 10828 10827 10825 10824 10823 10822 10820 10819 10817 10815 10813 10812 10811 10810 10809 10808 10806 10805 10804 10803 10802 10800 10799 10797 10794 10793 10792 10791 10789 10787 10786 10785 10783 10783 10782 10782 10781 10781 10780 10779 10778 10777 10776 10776 10775 10774 10773 10771
10836 10836 10835 10835 10835 10835 10835 10835 10835 10835 10835 10835 10835 10835 10835 10835 10835 10835 10835 10834 10834 10834 10834 10834 10833 10833 10833 10833 10832 10832 10831 10831 10831 10830 10830 10830 10829 10829 10828 10827 10826 10825 10824 10822 10821 10820 10818 10817 10816 10815 10813 10811 10810 10809 10808 10806 10805 10803 10802 10801 10800 10798 10797 10795 10793 10791 10790 10789 10787 10786 10784 10783 10781 10780 10779 10779 10778 10777 10777 10776 10776 10775 10774 10773 10772 10771 10770 10769
10833 10833 10833 10833 10833 10832 10832 10833 10833 10833 10833 10833 10833 10833 10833 10833 10833 10832 10832 10832 10832 10832 10832 10831 10831 10830 10830 10830 10830 10829 10829 10829 10829 10828 10828 10827 10827 10827 10826 10825 10824 10823 10822 10820 10819 10818 10817 10815 10814 10813 10812 10810 10809 10807 10806 10805 10803 10801 10800 10799 10798 10796 10795 10793 10791 10789 10788 10787 10786 10784 10782 10781 10779 10778 10776 10776 10775 10774 10774 10773 10772 10772 10771 10770 10770 10769 10767 10766
10830 10830 10830 10830 10830 10830 10830 10830 10830 10830 10830 10830 10831 10830 10830 10830 10830 10830 10830 10829 10829 10829 10829 10829 10828 10828 10827 10827 10827 10826 10826 10826 10826 10826 10825 10825 10825 10824 10824 10823 10822 10821 10820 10818 10817 10816 10814 10813 10812 10811 10810 10808 10807 10806 10805 10804 10802 10800 10799 10797 10796 10794 10793 10791 10789 10787 10785 10784 10783 10782 10780 10779 10777 10775 10774 10773 10771 10771 10770 10769 10769 10768 10767 10766 10766 10765 10764 10763
10827 10827 10827 10827 10827 10827 10827 10827 10827 10827 10827 10828 10828 10828 10828 10827 10827 10827 10828 10827 10827 10827 10826 10826 10826 10825 10825 10824 10824 10824 10824 10823 10823 10823 10823 10823 10822 10822 10821 10821 10820 10819 10818 10817 10815 10814 10812 10810 10809 10808 10807 10806 10805 10804 10803 10802 10801 10799 10798 10796 10795 10793 10791 10789 10787 10785 10783 10782 10781 10780 10778 10777 10776 10774 10771 10770 10768 10767 10767 10766 10765 10764 10763 10762 10762 10761 10760 10759
10823 10823 10823 10823 10823 10823 10823 10824 10824 10824 10824 10824 10825 10825 10825 10824 10823 10824 10825 10824 10824 10824 10824 10824 10823 10823 10822 10821 10821 10821 10821 10821 10820 10820 10820 10820 10819 10819 10819 10818 10818 10817 10816 10815 10813 10812 10811 10809 10807 10805 10804 10804 10803 10802 10801 10800 10799 10798 10796 10794 10793 10791 10790 10788 10786 10783 10781 10779 10778 10777 10775 10775 10774 10771 10769 10767 10765 10764 10763 10763 10762 10760 10759 10759 10758 10757 10757 10756
10819 10819 10819 10819 10819 10819 10819 10820 10820 10820 10820 10820 10821 10821 10821 10820 10819 10819 10820 10821 10820 10820 10821 10821 10820 10820 10820 10819 10818 10818 10818 10818 10818 10817 10817 10817 10816 10816 10816 10816 10815 10814 10814 10812 10811 10810 10809 10808 10806 10803 10802 10801 10800 10799 10798 10797 10796 10795 10793 10792 10790 10789 10787 10786 10784 10782 10780 10778 10776 10774 10772 10772 10771 10769 10767 10765 10763 10762 10761 10760 10759 10758 10757 10756 10755 10754 10753 10752
10815 10815 10815 10815 10815 10815 10815 10815 10816 10816 10816 10817 10817 10817 10817 10817 10816 10815 10815 10816 10816 10816 10817 10817 10817 10817 10817 10816 10816 10815 10815 10815 10815 10814 10814 10813 10813 10813 10813 10813 10812 10812 10811 10810 10809 10808 10807 10806 10804 10802 10800 10798 10797 10796 10795 10794 10793 10792 10791 10789 10788 10787 10785 10784 10782 10780 10778 10776 10774 10771 10770 10770 10769 10767 10764 10762 10761 10759 10758 10757 10756 10755 10754 10753 10752 10751 10750 10749
10810 10810 10811 10810 10810 10810 10810 10811 10811 10812 10812 10812 10813 10813 10813 10813 10813 10812 10811 10812 10812 10812 10812 10813 10813 10813 10813 10813 10812 10812 10812 10812 10812 10811 10811 10810 10810 10810 10810 10809 10809 10809 10808 10808 10806 10805 10804 10803 10802 10801 10798 10796 10794 10793 10792 10791 10789 10788 10787 10786 10784 10784 10782 10781 10780 10778 10776 10774 10772 10769 10766 10767 10767 10764 10762 10760 10758 10757 10755 10754 10753 10752 10751 10750 10749 10748 10747 10746
10806 10806 10806 10806 10806 10806 10806 10806 10806 10807 10807 10808 10809 10809 10809 10809 10809 10808 10808 10808 10807 10807 10808 10808 10809 10809 10809 10808 10808 10808 10808 10808 10808 10808 10807 10807 10806 10806 10806 10806 10806 10806 10805 10804 10804 10803 10801 10800 10799 10798 10797 10795 10792 10790 10789 10787 10786 10785 10784 10782 10781 10780 10779 10778 10777 10775 10774 10772 10770 10766 10763 10764 10765 10762 10759 10758 10756 10754 10752 10751 10750 10749 10748 10747 10746 10745 10744 10743
10803 10802 10802 10802 10802 10801 10801 10801 10801 10802 10802 10803 10804 10805 10805 10805 10805 10804 10804 10804 10804 10803 10803 10804 10804 10805 10804 10803 10804 10804 10804 10804 10804 10804 10803 10803 10802 10802 10802 10802 10802 10802 10802 10801 10800 10800 10798 10797 10796 10795 10794 10793 10791 10789 10786 10784 10783 10782 10780 10779 10777 10776 10775 10775 10773 10772 10771 10769 10768 10765 10759 10759 10762 10759 10756 10755 10753 10751 10749 10748 10747 10745 10745 10743 10742 10742 10740 10739
10799 10799 10798 10798 10798 10797 10797 10797 10797 10797 10798 10798 10799 10800 10800 10800 10800 10800 10799 10800 10800 10799 10799 10800 10800 10800 10800 10798 10799 10800 10799 10799 10799 10799 10799 10798 10798 10798 10798 10798 10798 10798 10798 10797 10797 10796 10795 10794 10793 10792 10791 10790 10788 10786 10784 10782 10781 10779 10777 10776 10774 10772 10771 10771 10770 10768 10767 10766 10765 10763 10758 10753 10756 10755 10752 10751 10749 10747 10745 10744 10743 10741 10740 10739 10738 10737 10736 10735
10796 10795 10795 10794 10794 10793 10793 10793 10793 10793 10793 10793 10794 10795 10795 10795 10795 10795 10795 10795 10795 10795 10795 10795 10795 10796 10795 10793 10794 10794 10794 10794 10794 10794 10794 10793 10793 10793 10793 10793 10793 10793 10793 10793 10792 10792 10792 10791 10790 10788 10787 10786 10785 10783 10781 10779 10778 10777 10775 10773 10772 10770 10768 10768 10767 10764 10762 10761 10760 10760 10756 10749 10749 10750 10748 10746 10744 10741 10740 10739 10738 10737 10735 10735 10734 10733 10732 10730
10792 10791 10791 10791 10790 10790 10789 10789 10789 10788 10788 10788 10788 10789 10790 10790 10790 10790 10790 10790 10790 10790 10790 10790 10790 10791 10790 10788 10788 10789 10789 10789 10789 10789 10788 10788 10788 10788 10788 10788 10788 10788 10788 10788 10788 10788 10788 10787 10786 10784 10783 10782 10781 10780 10778 10776 10775 10774 10772 10770 10768 10767 10765 10764 10765 10762 10759 10757 10755 10755 10754 10747 10743 10744 10743 10742 10740 10736 10735 10735 10734 10733 10731 10730 10729 10728 10727 10726
10788 10788 10787 10787 10786 10786 10785 10785 10785 10784 10784 10784 10784 10784 10785 10785 10785 10785 10785 10785 10785 10785 10786 10785 10785 10786 10785 10784 10783 10783 10784 10784 10783 10783 10782 10782 10783 10783 10783 10783 10783 10783 10783 10783 10783 10783 10783 10783 10782 10780 10779 10778 10777 10776 10774 10773 10771 10770 10769 10766 10765 10764 10763 10762 10761 10759 10757 10754 10751 10751 10751 10745 10738 10738 10739 10738 10736 10732 10730 10731 10730 10729 10728 10726 10725 10723 10722 10721
10784 10784 10783 10783 10782 10782 10782 10781 10781 10780 10779 10780 10779 10779 10780 10781 10780 10780 10780 10781 10780 10780 10781 10780 10780 10781 10780 10779 10778 10778 10778 10778 10777 10777 10776 10777 10778 10778 10778 10778 10778 10778 10778 10777 10778 10778 10778 10778 10777 10776 10775 10774 10773 10771 10771 10769 10767 10766 10765 10763 10761 10760 10759 10759 10759 10757 10755 10753 10748 10747 10749 10744 10735 10731 10733 10734 10732 10729 10727 10726 10726 10725 10724 10722 10721 10719 10718 10717
10780 10779 10779 10778 10778 10778 10778 10778 10777 10776 10775 10775 10776 10775 10775 10776 10776 10776 10776 10776 10776 10776 10776 10776 10776 10776 10775 10774 10773 10773 10773 10772 10771 10770 10770 10771 10772 10772 10772 10773 10773 10773 10773 10772 10772 10772 10773 10773 10771 10770 10770 10769 10768 10766 10766 10765 10763 10762 10760 10759 10758 10756 10754 10754 10756 10754 10753 10751 10746 10744 10747 10743 10734 10726 10725 10728 10727 10724 10723 10723 10722 10721 10720 10718 10717 10715 10714 10712
10776 10775 10774 10774 10774 10774 10774 10774 10773 10772 10771 10771 10772 10772 10771 10772 10772 10772 10772 10771 10771 10771 10771 10771 10771 10771 10770 10769 10768 10768 10767 10766 10764 10763 10764 10765 10766 10766 10767 10767 10768 10768 10767 10767 10767 10766 10767 10767 10764 10765 10765 10763 10762 10761 10760 10760 10759 10757 10756 10754 10753 10753 10751 10749 10750 10750 10750 10750 10744 10741 10744 10741 10733 10725 10718 10720 10722 10717 10717 10718 10717 10717 10716 10714 10713 10711 10709 10707
10772 10771 10770 10770 10770 10770 10770 10770 10769 10768 10768 10767 10767 10768 10768 10768 10768 10768 10768 10767 10767 10767 10766 10766 10766 10766 10765 10764 10764 10763 10762 10759 10758 10757 10758 10759 10759 10760 10761 10762 10762 10761 10761 10762 10761 10761 10762 10760 10758 10759 10759 10757 10757 10755 10754 10754 10753 10752 10751 10750 10748 10748 10749 10745 10744 10745 10745 10746 10743 10738 10741 10738 10731 10724 10715 10712 10715 10710 10708 10711 10711 10711 10710 10708 10707 10705 10703 10701
10767 10766 10765 10765 10765 10765 10766 10765 10764 10764 10764 10763 10763 10763 10763 10764 10764 10764 10765 10764 10763 10763 10762 10762 10762 10761 10761 10760 10759 10758 10756 10753 10751 10751 10752 10753 10753 10754 10755 10755 10756 10755 10754 10755 10755 10756 10756 10753 10751 10752 10752 10751 10751 10749 10748 10749 10748 10747 10745 10745 10743 10742 10745 10743 10739 10740 10740 10741 10740 10736 10738 10737 10729 10723 10714 10706 10707 10703 10698 10702 10704 10704 10704 10702 10700 10699 10696 10694
10761 10760 10760 10759 10760 10760 10760 10760 10759 10759 10759 10758 10758 10758 10758 10759 10759 10759 10761 10762 10761 10758 10758 10758 10757 10757 10756 10755 10754 10752 10750 10747 10746 10746 10746 10747 10747 10748 10749 10749 10750 10749 10748 10748 10750 10751 10749 10747 10745 10745 10746 10745 10744 10743 10742 10743 10743 10742 10739 10739 10739 10737 10739 10740 10736 10735 10734 10734 10735 10733 10735 10735 10727 10721 10712 10703 10702 10695 10689 10693 10696 10696 10695 10694 10693 10691 10690 10688
10755 10754 10754 10754 10754 10755 10755 10754 10754 10753 10753 10753 10753 10752 10753 10753 10754 10755 10756 10759 10761 10756 10753 10753 10754 10753 10751 10750 10749 10746 10744 10742 10742 10740 10740 10741 10741 10743 10744 10743 10744 10743 10741 10742 10744 10745 10742 10739 10740 10739 10739 10739 10738 10736 10735 10737 10739 10736 10733 10732 10734 10733 10732 10734 10733 10731 10730 10728 10728 10726 10731 10735 10728 10721 10710 10701 10699 10687 10678 10685 10687 10686 10687 10686 10686 10684 10683 10683
10749 10748 10749 10748 10748 10749 10749 10748 10748 10747 10747 10748 10747 10746 10747 10748 10748 10749 10750 10755 10760 10755 10750 10750 10749 10748 10746 10744 10743 10740 10739 10738 10737 10735 10735 10736 10736 10737 10737 10737 10738 10736 10735 10737 10738 10739 10734 10731 10734 10734 10732 10732 10731 10729 10726 10731 10735 10732 10726 10724 10728 10728 10725 10727 10727 10727 10727 10725 10722 10716 10721 10733 10731 10723 10710 10701 10698 10683 10672 10679 10680 10678 10679 10678 10679 10678 10678 10678
10742 10742 10742 10741 10742 10743 10743 10743 10741 10740 10741 10741 10741 10741 10742 10743 10743 10744 10745 10750 10757 10754 10748 10746 10744 10743 10739 10736 10736 10734 10733 10733 10732 10731 10730 10731 10732 10732 10732 10731 10731 10730 10730 10731 10733 10733 10727 10724 10727 10727 10726 10726 10724 10721 10720 10723 10728 10727 10721 10717 10720 10721 10720 10721 10719 10721 10722 10722 10722 10709 10707 10727 10732 10722 10712 10701 10694 10682 10673 10675 10674 10671 10671 10670 10671 10673 10673 10672
10736 10736 10735 10735 10735 10735 10736 10736 10734 10734 10735 10734 10734 10735 10735 10737 10738 10738 10739 10746 10754 10752 10746 10741 10738 10737 10733 10729 10729 10727 10727 10728 10727 10726 10725 10726 10727 10727 10727 10725 10723 10724 10724 10724 10727 10726 10720 10719 10720 10719 10720 10719 10716 10714 10714 10715 10719 10721 10716 10712 10713 10712 10713 10715 10712 10714 10714 10717 10721 10704 10696 10719 10729 10720 10711 10697 10686 10681 10675 10670 10666 10663 10663 10662 10663 10666 10668 10666
10730 10729 10729 10729 10728 10729 10729 10729 10728 10727 10727 10727 10727 10728 10729 10731 10732 10733 10734 10741 10750 10749 10743 10736 10731 10730 10726 10723 10723 10721 10721 10722 10721 10722 10721 10720 10722 10722 10721 10719 10717 10718 10717 10718 10721 10718 10714 10715 10713 10712 10713 10711 10709 10708 10708 10708 10710 10713 10710 10707 10707 10705 10706 10707 10706 10706 10706 10712 10716 10700 10691 10709 10722 10717 10706 10692 10682 10679 10674 10665 10658 10656 10654 10653 10655 10659 10661 10659
10724 10723 10723 10722 10722 10722 10722 10722 10722 10720 10719 10720 10720 10721 10722 10724 10726 10728 10731 10738 10744 10742 10737 10732 10727 10723 10719 10716 10717 10717 10716 10716 10716 10718 10716 10715 10717 10716 10715 10713 10712 10712 10710 10712 10714 10709 10707 10709 10707 10706 10705 10703 10702 10702 10701 10701 10702 10703 10703 10702 10699 10698 10700 10699 10699 10698 10699 10708 10708 10696 10691 10700 10713 10713 10697 10686 10680 10674 10669 10660 10650 10648 10646 10645 10648 10651 10652 10650
10718 10718 10717 10716 10715 10715 10715 10715 10715 10712 10712 10712 10713 10714 10715 10717 10720 10723 10729 10735 10735 10731 10730 10728 10722 10716 10711 10710 10711 10712 10712 10711 10711 10712 10711 10711 10711 10710 10710 10706 10704 10704 10704 10706 10705 10701 10701 10703 10702 10699 10697 10697 10696 10695 10694 10694 10694 10694 10694 10693 10690 10691 10692 10691 10692 10690 10691 10701 10699 10690 10690 10693 10703 10705 10690 10682 10678 10669 10664 10654 10643 10640 10638 10638 10641 10644 10644 10642
10711 10711 10710 10710 10708 10707 10708 10708 10706 10705 10705 10705 10706 10707 10708 10712 10716 10721 10728 10729 10723 10722 10723 10720 10714 10709 10707 10706 10706 10706 10705 10705 10705 10705 10705 10705 10705 10706 10703 10699 10697 10696 10697 10698 10696 10694 10696 10696 10695 10693 10690 10689 10688 10688 10688 10687 10687 10686 10684 10683 10681 10682 10683 10683 10685 10681 10683 10692 10689 10685 10687 10689 10695 10694 10682 10678 10674 10665 10656 10646 10638 10635 10631 10632 10635 10636 10635 10633
10702 10703 10704 10703 10701 10700 10701 10699 10697 10697 10698 10697 10698 10700 10702 10707 10715 10722 10724 10719 10714 10716 10714 10708 10706 10705 10702 10702 10702 10699 10698 10699 10698 10697 10698 10699 10700 10701 10697 10694 10691 10687 10688 10690 10687 10686 10691 10691 10688 10686 10684 10682 10681 10681 10680 10680 10679 10678 10676 10673 10672 10672 10670 10674 10678 10675 10677 10681 10677 10679 10683 10685 10689 10684 10675 10673 10667 10657 10647 10638 10634 10631 10626 10628 10630 10628 10628 10625
10693 10695 10695 10695 10693 10692 10692 10691 10688 10688 10689 10688 10690 10694 10696 10703 10717 10721 10715 10709 10706 10706 10703 10699 10700 10699 10697 10698 10697 10693 10691 10692 10691 10689 10690 10692 10694 10695 10691 10688 10683 10677 10678 10679 10678 10678 10683 10687 10684 10676 10675 10676 10675 10672 10671 10672 10671 10670 10669 10664 10664 10661 10655 10661 10670 10669 10671 10672 10669 10671 10675 10680 10682 10676 10672 10668 10659 10648 10638 10631 10629 10625 10622 10623 10623 10621 10620 10618
10685 10687 10687 10687 10685 10682 10682 10681 10679 10679 10679 10679 10682 10686 10691 10704 10716 10714 10706 10702 10697 10693 10694 10693 10692 10691 10692 10693 10692 10689 10685 10683 10683 10682 10682 10685 10688 10688 10685 10681 10676 10670 10666 10666 10668 10668 10672 10683 10682 10668 10666 10669 10667 10664 10662 10662 10662 10662 10661 10657 10656 10652 10643 10647 10658 10658 10658 10662 10665 10665 10667 10672 10673 10670 10668 10662 10650 10639 10629 10626 10625 10620 10616 10616 10616 10614 10611 10609
10677 10679 10679 10679 10678 10674 10670 10669 10670 10669 10668 10671 10672 10677 10690 10705 10707 10701 10699 10695 10687 10686 10686 10683 10683 10684 10686 10688 10687 10684 10678 10675 10677 10675 10674 10678 10680 10681 10680 10675 10668 10661 10657 10654 10655 10655 10660 10675 10677 10664 10661 10661 10657 10657 10655 10653 10654 10655 10654 10650 10647 10644 10638 10636 10642 10644 10640 10646 10659 10661 10659 10665 10665 10663 10662 10651 10641 10631 10621 10621 10620 10612 10609 10608 10608 10606 10602 10601
10669 10670 10670 10672 10671 10665 10658 10658 10660 10658 10658 10661 10662 10673 10692 10699 10693 10691 10692 10687 10681 10680 10676 10673 10676 10677 10679 10681 10680 10676 10670 10668 10670 10669 10669 10671 10671 10675 10675 10669 10661 10654 10650 10643 10639 10641 10648 10661 10666 10659 10656 10654 10650 10650 10650 10648 10648 10647 10646 10643 10638 10636 10634 10627 10625 10629 10626 10629 10647 10655 10652 10658 10662 10658 10653 10642 10631 10621 10615 10617 10614 10605 10601 10600 10599 10597 10594 10592
10660 10661 10663 10665 10662 10654 10648 10648 10648 10648 10649 10648 10654 10674 10689 10687 10683 10683 10681 10677 10674 10670 10665 10666 10671 10671 10671 10673 10673 10669 10661 10659 10663 10662 10661 10662 10666 10671 10669 10661 10656 10650 10643 10634 10627 10628 10633 10643 10652 10651 10647 10647 10645 10644 10646 10647 10642 10638 10638 10637 10633 10629 10625 10618 10611 10615 10615 10615 10632 10646 10644 10650 10656 10650 10643 10635 10623 10614 10613 10614 10608 10600 10595 10594 10592 10589 10587 10585
10650 10651 10657 10658 10651 10643 10638 10637 10638 10639 10638 10638 10653 10674 10679 10675 10675 10673 10669 10668 10664 10659 10657 10661 10665 10663 10663 10666 10666 10661 10653 10652 10655 10653 10652 10654 10660 10666 10663 10654 10650 10645 10637 10626 10618 10618 10619 10623 10636 10642 10638 10637 10639 10640 10642 10641 10634 10631 10632 10630 10627 10620 10614 10609 10602 10603 10606 10602 10614 10632 10637 10644 10648 10637 10630 10625 10613 10608 10610 10608 10601 10594 10589 10587 10585 10581 10578 10576
10639 10643 10650 10649 10638 10632 10630 10627 10628 10628 10627 10636 10654 10665 10665 10665 10666 10663 10660 10657 10653 10649 10651 10655 10655 10652 10656 10659 10656 10651 10647 10646 10647 10644 10644 10647 10652 10660 10657 10647 10642 10638 10631 10620 10611 10610 10608 10606 10616 10628 10628 10629 10635 10637 10635 10631 10626 10624 10625 10624 10621 10613 10603 10600 10596 10597 10597 10589 10596 10611 10625 10642 10642 10625 10618 10612 10603 10602 10604 10599 10592 10585 10579 10578 10576 10573 10569 10565
10628 10632 10642 10639 10626 10622 10620 10614 10616 10619 10623 10635 10646 10650 10653 10655 10654 10653 10650 10646 10643 10642 10643 10646 10645 10642 10647 10648 10643 10642 10640 10638 10639 10637 10637 10642 10646 10650 10649 10641 10634 10628 10622 10615 10607 10604 10600 10595 10597 10610 10619 10625 10630 10630 10626 10624 10620 10615 10615 10614 10612 10603 10594 10591 10593 10594 10587 10579 10583 10588 10603 10635 10637 10615 10608 10602 10595 10599 10596 10587 10582 10574 10569 10568 10567 10564 10558 10554
10616 10621 10633 10629 10615 10610 10605 10600 10607 10613 10617 10629 10638 10639 10640 10641 10642 10642 10639 10636 10635 10634 10633 10635 10635 10633 10635 10634 10632 10633 10629 10627 10631 10630 10630 10636 10638 10639 10639 10632 10624 10619 10613 10607 10603 10598 10592 10583 10581 10593 10610 10619 10623 10623 10620 10618 10613 10608 10605 10604 10599 10592 10587 10582 10581 10586 10581 10573 10575 10569 10578 10619 10629 10605 10597 10594 10591 10594 10586 10575 10571 10564 10560 10560 10558 10554 10549 10544
10604 10613 10621 10614 10603 10600 10592 10589 10600 10606 10611 10624 10629 10624 10622 10625 10630 10632 10631 10628 10626 10625 10623 10624 10625 10623 10621 10622 10622 10622 10619 10618 10622 10623 10624 10628 10629 10628 10626 10619 10613 10611 10606 10599 10596 10591 10581 10570 10569 10583 10600 10610 10614 10617 10615 10610 10605 10599 10596 10594 10589 10585 10582 10573 10566 10573 10573 10569 10571 10555 10554 10599 10618 10593 10585 10588 10586 10584 10574 10563 10560 10554 10552 10552 10547 10544 10539 10534
10596 10601 10602 10596 10592 10589 10581 10583 10595 10598 10604 10613 10611 10608 10610 10613 10619 10622 10623 10620 10616 10614 10612 10612 10615 10612 10609 10612 10611 10610 10610 10607 10612 10616 10614 10616 10620 10618 10612 10607 10604 10600 10596 10591 10587 10579 10568 10560 10562 10573 10588 10600 10607 10610 10608 10602 10595 10588 10587 10587 10583 10580 10577 10567 10560 10561 10561 10566 10567 10541 10535 10578 10600 10581 10578 10581 10574 10570 10563 10553 10549 10547 10545 10542 10537 10534 10530 10523
10583 10582 10584 10584 10580 10574 10573 10583 10590 10586 10589 10595 10593 10597 10601 10600 10607 10613 10613 10610 10605 10602 10602 10603 10605 10602 10601 10601 10599 10600 10600 10597 10602 10606 10601 10601 10607 10607 10602 10598 10593 10588 10585 10582 10575 10566 10557 10554 10556 10563 10577 10590 10598 10599 10597 10591 10581 10577 10581 10582 10577 10574 10569 10562 10559 10550 10550 10563 10556 10526 10527 10562 10577 10568 10569 10570 10560 10555 10551 10543 10540 10539 10536 10532 10528 10524 10518 10513
10565 10563 10568 10571 10567 10562 10566 10577 10578 10571 10575 10580 10579 10585 10586 10587 10596 10601 10599 10597 10595 10594 10594 10594 10594 10593 10592 10589 10588 10592 10591 10587 10586 10586 10588 10591 10594 10597 10595 10586 10580 10577 10573 10569 10563 10554 10548 10548 10553 10559 10566 10577 10586 10588 10584 10577 10570 10568 10575 10574 10568 10567 10562 10557 10555 10544 10544 10551 10535 10518 10528 10546 10556 10560 10557 10551 10545 10540 10538 10534 10531 10528 10525 10521 10517 10512 10507 10502
10545 10544 10551 10558 10554 10550 10556 10566 10564 10561 10566 10566 10562 10567 10571 10574 10583 10585 10583 10586 10589 10588 10584 10583 10583 10583 10582 10581 10580 10580 10579 10574 10567 10567 10578 10585 10584 10586 10582 10573 10568 10564 10560 10557 10550 10543 10540 10544 10552 10557 10557 10563 10573 10575 10568 10562 10561 10561 10564 10564 10562 10560 10553 10551 10551 10543 10537 10525 10512 10523 10532 10523 10536 10557 10546 10530 10527 10525 10525 10525 10520 10517 10514 10508 10504 10500 10496 10491
10524 10526 10535 10543 10539 10534 10544 10555 10553 10551 10553 10549 10543 10550 10557 10562 10568 10572 10574 10578 10580 10575 10569 10571 10574 10573 10574 10574 10567 10564 10564 10559 10553 10559 10573 10578 10574 10571 10565 10559 10557 10553 10549 10545 10538 10535 10533 10538 10551 10555 10550 10551 10559 10560 10552 10547 10550 10552 10551 10554 10557 10551 10545 10546 10547 10540 10525 10500 10497 10526 10528 10503 10521 10548 10533 10514 10512 10511 10515 10514 10508 10507 10503 10495 10492 10488 10483 10477
10508 10514 10519 10522 10518 10518 10531 10544 10542 10535 10531 10529 10529 10536 10542 10548 10556 10563 10565 10563 10562 10559 10556 10560 10566 10566 10565 10561 10551 10547 10550 10549 10549 10559 10566 10563 10556 10550 10545 10545 10544 10542 10540 10535 10531 10530 10525 10530 10546 10547 10537 10541 10550 10547 10537 10531 10535 10539 10539 10546 10550 10544 10539 10539 10535 10529 10514 10492 10494 10515 10509 10495 10516 10529 10511 10501 10499 10496 10500 10501 10495 10493 10488 10482 10479 10474 10468 10462
10493 10501 10504 10503 10500 10501 10510 10521 10522 10515 10514 10517 10517 10519 10527 10536 10545 10550 10548 10544 10545 10546 10543 10546 10556 10558 10551 10545 10536 10533 10539 10544 10549 10555 10553 10543 10536 10530 10527 10530 10531 10531 10531 10528 10527 10525 10517 10521 10536 10532 10521 10530 10542 10539 10523 10513 10518 10524 10528 10538 10545 10536 10527 10524 10520 10516 10507 10494 10494 10497 10487 10494 10516 10508 10489 10490 10489 10480 10483 10486 10481 10476 10472 10468 10465 10459 10453 10447
10479 10487 10492 10488 10482 10484 10488 10492 10496 10496 10500 10503 10499 10504 10516 10524 10532 10533 10527 10525 10529 10531 10530 10533 10544 10543 10532 10526 10523 10522 10534 10542 10539 10539 10534 10521 10515 10513 10513 10517 10522 10521 10520 10520 10520 10516 10509 10511 10521 10517 10505 10516 10535 10528 10507 10501 10504 10505 10515 10538 10543 10522 10505 10506 10511 10508 10496 10486 10485 10480 10476 10493 10507 10491 10475 10480 10477 10468 10470 10471 10465 10461 10456 10452 10449 10444 10438 10433
10469 10473 10475 10469 10464 10468 10472 10473 10474 10473 10478 10483 10486 10496 10503 10506 10516 10517 10507 10505 10512 10516 10517 10522 10527 10524 10512 10508 10511 10517 10530 10530 10517 10514 10513 10502 10499 10503 10504 10506 10510 10509 10508 10509 10508 10504 10499 10497 10504 10501 10488 10501 10524 10512 10493 10493 10489 10486 10512 10538 10529 10501 10489 10496 10504 10497 10482 10471 10468 10469 10474 10483 10487 10476 10468 10468 10464 10460 10460 10457 10452 10447 10442 10436 10433 10429 10424 10419
10455 10453 10455 10453 10448 10450 10455 10458 10457 10453 10458 10468 10474 10482 10485 10488 10498 10498 10489 10493 10504 10506 10503 10503 10505 10502 10494 10496 10506 10513 10513 10503 10492 10493 10495 10489 10488 10492 10492 10492 10496 10498 10498 10497 10494 10491 10488 10484 10487 10483 10471 10481 10501 10495 10482 10479 10471 10483 10519 10525 10500 10487 10488 10489 10489 10481 10468 10458 10454 10459 10467 10468 10464 10459 10456 10454 10455 10454 10449 10444 10440 10434 10427 10422 10419 10415 10410 10405